Location: Caltech
(34.1382°N, 118.1253°W)
Time: 04:38:29
(UTC-08:00)

USA 129 - Visible Passes

Search period start: 10 December 2016 00:00
Search period end: 20 December 2016 00:00
Orbit: 241 x 674 km, 97.5° (Epoch: 24 April)

Date Brightness Start Highest point End Pass type
(mag) Time Alt. Az. Time Alt. Az. Time Alt. Az.
11 Dec 5.0 05:23:51 10° ESE 05:25:01 13° ENE 05:26:10 10° NE visible
12 Dec 2.9 05:48:27 10° SSE 05:50:31 43° ENE 05:52:34 10° N visible
13 Dec 2.2 06:13:55 10° S 06:15:58 38° W 06:17:59 10° NNW visible
15 Dec 4.2 05:39:29 10° SE 05:41:14 22° ENE 05:42:57 10° NNE visible
16 Dec 1.5 06:04:10 10° SSE 06:06:18 88° WSW 06:08:20 10° NNW visible
18 Dec 5.0 05:30:06 10° E 05:30:52 11° ENE 05:31:36 10° NE visible
19 Dec 3.1 05:53:39 10° SSE 05:55:34 35° ENE 05:57:20 10° N visible
